Vitoria, Spain

7:10 PM CET on November 18, 2017 (GMT +0100)
Foronda

Weather History for LEVT - August, 2013

Change the Weather History Date:

Saturday, August 17, 2013

  Actual Average Record
Temperature  
Mean Temperature 66 °F -  
Max Temperature 80 °F 76 °F 100 °F (2012)
Min Temperature 53 °F 51 °F 39 °F (2014)
Cooling Degree Days 2    
Growing Degree Days 16 (Base 50)    
Moisture  
Dew Point 57 °F    
Average Humidity 74    
Maximum Humidity 100    
Minimum Humidity 45    
Precipitation  
Precipitation 0.00 in - - ()
Sea Level Pressure  
Sea Level Pressure 30.15 in    
Wind  
Wind Speed 2 mph ()    
Max Wind Speed 14 mph    
Max Gust Speed -    
Visibility 6.1 miles    
Events      
Averages and records for this station are not official NWS values.
T = Trace of Precipitation, MM = Missing Value Source: Averaged Metar Reports

Daily Weather History Graph

Daily Weather History Graph

Search for Another Location

Airport or City:

Trip Planner

Search our weather history database for the weather conditions in past years. The results will help you decide how hot, cold, wet, or windy it might be!

Date:

Astronomy

Aug. 17, 2013 Rise Set
Actual Time 7:19 AM CEST 9:09 PM CEST
Civil Twilight 6:48 AM CEST 9:40 PM CEST
Nautical Twilight 6:11 AM CEST 10:17 PM CEST
Astronomical Twilight 5:31 AM CEST 10:57 PM CEST
Moon 6:14 PM CEST (8/17) 3:04 AM CEST (8/17)
Length of Visible Light 14h 51m
Length of Day
13h 50m
Waxing Gibbous, 82% of the Moon is Illuminated
Aug 17
Waxing Gibbous
Aug 21
Full
Aug 28
Last Quarter
Sep 5
New
Sep 12
First Quarter

Hourly Weather History & Observations

Time (CEST) Temp. Heat Index Dew Point Humidity Pressure Visibility Wind Dir Wind Speed Gust Speed Precip Events Conditions
12:00 AM 60.8 °F - 55.4 °F 82% 30.21 in 6.2 mi Calm Calm - N/A   Partly Cloudy
12:30 AM 60.8 °F - 55.4 °F 82% 30.21 in 6.2 mi Calm Calm - N/A   Partly Cloudy
1:00 AM 59.0 °F - 55.4 °F 88% 30.21 in 6.2 mi Calm Calm - N/A   Partly Cloudy
1:30 AM 55.4 °F - 53.6 °F 94% 30.21 in 6.2 mi ENE 3.5 mph - N/A   Partly Cloudy
2:00 AM 57.2 °F - 57.2 °F 100% 30.21 in 6.2 mi NNE 3.5 mph - N/A   Scattered Clouds
2:30 AM 59.0 °F - 55.4 °F 88% 30.21 in 6.2 mi Calm Calm - N/A   Mostly Cloudy
3:00 AM 59.0 °F - 57.2 °F 94% 30.21 in 6.2 mi Calm Calm - N/A   Mostly Cloudy
3:30 AM 59.0 °F - 57.2 °F 94% 30.18 in 6.2 mi Calm Calm - N/A   Mostly Cloudy
4:00 AM 60.8 °F - 57.2 °F 88% 30.18 in 6.2 mi Calm Calm - N/A   Mostly Cloudy
4:30 AM 60.8 °F - 57.2 °F 88% 30.18 in 5.6 mi Calm Calm - N/A   Mostly Cloudy
5:00 AM 60.8 °F - 57.2 °F 88% 30.18 in 5.6 mi Calm Calm - N/A   Mostly Cloudy
5:30 AM 60.8 °F - 57.2 °F 88% 30.15 in 5.6 mi Calm Calm - N/A   Mostly Cloudy
6:00 AM 57.2 °F - 55.4 °F 94% 30.18 in 5.6 mi NE 2.3 mph - N/A   Mostly Cloudy
6:30 AM 57.2 °F - 55.4 °F 94% 30.18 in 5.6 mi Variable 1.2 mph - N/A   Mostly Cloudy
7:00 AM 55.4 °F - 53.6 °F 94% 30.15 in 5.6 mi Calm Calm - N/A   Scattered Clouds
7:30 AM 53.6 °F - 51.8 °F 94% 30.18 in 6.2 mi East 1.2 mph - N/A   Scattered Clouds
8:00 AM 55.4 °F - 55.4 °F 100% 30.18 in 6.2 mi Calm Calm - N/A   Scattered Clouds
8:30 AM 57.2 °F - 55.4 °F 94% 30.18 in 6.2 mi Variable 1.2 mph - N/A   Scattered Clouds
9:00 AM 60.8 °F - 57.2 °F 88% 30.18 in 6.2 mi Calm Calm - N/A   Scattered Clouds
9:30 AM 64.4 °F - 57.2 °F 77% 30.18 in 6.2 mi Calm Calm - N/A   Partly Cloudy
10:00 AM 64.4 °F - 57.2 °F 77% 30.18 in 6.2 mi Variable 1.2 mph - N/A   Partly Cloudy
10:30 AM 66.2 °F - 57.2 °F 73% 30.18 in 6.2 mi Calm Calm - N/A   Scattered Clouds
11:00 AM 68.0 °F - 59.0 °F 73% 30.18 in 6.2 mi Calm Calm - N/A   Scattered Clouds
11:30 AM 69.8 °F - 57.2 °F 64% 30.15 in 6.2 mi NNE 4.6 mph - N/A   Partly Cloudy
12:00 PM 71.6 °F - 59.0 °F 64% 30.15 in 6.2 mi NE 1.2 mph - N/A   Partly Cloudy
12:30 PM 73.4 °F - 59.0 °F 61% 30.15 in 6.2 mi NE 1.2 mph - N/A   Partly Cloudy
1:00 PM 73.4 °F - 57.2 °F 57% 30.15 in 6.2 mi NE 3.5 mph - N/A   Partly Cloudy
1:30 PM 75.2 °F - 57.2 °F 53% 30.12 in 6.2 mi North 4.6 mph - N/A   Partly Cloudy
2:00 PM 77.0 °F - 59.0 °F 54% 30.12 in 6.2 mi NNE 3.5 mph - N/A   Partly Cloudy
2:30 PM 78.8 °F - 59.0 °F 51% 30.12 in 6.2 mi East 2.3 mph - N/A   Partly Cloudy
3:00 PM 78.8 °F - 59.0 °F 51% 30.12 in 6.2 mi NNE 3.5 mph - N/A   Partly Cloudy
3:30 PM 80.6 °F 80.8 °F 57.2 °F 45% 30.09 in 6.2 mi NNE 6.9 mph - N/A   Partly Cloudy
4:00 PM 80.6 °F 81.1 °F 59.0 °F 48% 30.09 in 6.2 mi NE 9.2 mph - N/A   Partly Cloudy
4:30 PM 77.0 °F - 55.4 °F 47% 30.09 in 6.2 mi NE 11.5 mph - N/A   Partly Cloudy
5:00 PM 77.0 °F - 55.4 °F 47% 30.09 in 6.2 mi NE 9.2 mph - N/A   Partly Cloudy
5:30 PM 77.0 °F - 55.4 °F 47% 30.09 in 6.2 mi NE 13.8 mph - N/A   Partly Cloudy
6:00 PM 77.0 °F - 57.2 °F 50% 30.09 in 6.2 mi NNE 12.7 mph - N/A   Partly Cloudy
6:30 PM 75.2 °F - 55.4 °F 50% 30.09 in 6.2 mi NNE 13.8 mph - N/A   Partly Cloudy
7:00 PM 73.4 °F - 55.4 °F 53% 30.09 in 6.2 mi NNE 13.8 mph - N/A   Partly Cloudy
7:30 PM 71.6 °F - 57.2 °F 60% 30.09 in 6.2 mi NNE 13.8 mph - N/A   Partly Cloudy
8:00 PM 71.6 °F - 57.2 °F 60% 30.09 in 6.2 mi NNE 11.5 mph - N/A   Partly Cloudy
8:30 PM 69.8 °F - 57.2 °F 64% 30.09 in 6.2 mi NE 10.4 mph - N/A   Partly Cloudy
9:00 PM 68.0 °F - 57.2 °F 68% 30.09 in 6.2 mi NNE 8.1 mph - N/A   Partly Cloudy
9:30 PM 66.2 °F - 55.4 °F 68% 30.12 in - North 5.8 mph - N/A   Clear
10:00 PM 64.4 °F - 57.2 °F 77% 30.12 in - NNE 5.8 mph - N/A   Clear
10:30 PM 60.8 °F - 55.4 °F 82% 30.12 in - Variable 1.2 mph - N/A   Clear
11:00 PM 59.0 °F - 55.4 °F 88% 30.12 in - Variable 1.2 mph - N/A   Clear
11:30 PM 59.0 °F - 55.4 °F 88% 30.12 in - Calm Calm - N/A   Clear